星链-6173 (STARLINK-6173 )

导读 | 豆包AI

STARLINK-6173是美国太空探索技术公司Starlink星链互联网卫星星座的一员,于2023年5月4日发射入轨,属于星链低轨卫星组网的批量发射卫星之一。这类卫星承担为全球提供高速低延迟卫星互联网服务的任务,依托低轨道部署,是星链不断扩展星座规模、完善全球覆盖能力的组成部分。

基本信息
目录编号:
56385
目录名称:
STARLINK-6173
国际标识:
2023-061M
轨道中心:
EARTH
卫星名称:
星链-6173
卫星全名:
星链-6173 (STARLINK-6173 )
卫星状态:
在轨 (已飞行1046 天)
发射日期:
2023-05-04 UTC
国别 :
美国 (US)
星等 :
--
轨道信息
数据来源 国际轨道数据
星历时间: 2026-03-15T22:00:02+0800
7小时前
查看轨道信息
半长轴: 6885.067km
偏心率: 0.0001607
轨道倾角: 43.001°
近地点辐角 312.481°
升交点赤经 164.179°
平近点角 135.379°
近地点: 505.823km
远地点: 508.037km
周期: 94.759分钟
每日圈数: 15.196393
详细信息
固有亮度:
5
最大亮度:
2.5
卫星平台:
Starlink v1.5
覆盖范围:
全球
运营商:
太空探索技术公司
运营商所在国:
美国
制造商(研发单位):
太空探索技术公司
制造商所在国:
美国
使用方式:
暂无
卫星简介
星链(Starlink)计划是由太空探索技术公司(SpaceX)提出的一个巨型低轨卫星互联网星座项目,计划在2019年至2024年间在太空搭建由约1.2万颗卫星组成的“星链”网络,其中1584颗将部署在地球上空550千米处的近地轨道,并从2020年开始工作。该卫星仍在工作。
2D轨道图
3D轨道图
轨道高度分析图
轨道倾角分析图
轨道综合分析图
查看轨道综合分析图